Regional Weather Roundup
Issued by NWS

Home | Current Version | Previous Version | Graphics & Text | Print | Product List | Glossary On
Versions: 1 2 3 4 5 6 7 8 9 10 11 12 13 14 15 16 17 18 19 20 21 22 23 24 25 26 27 28 29 30 31 32 33 34 35 36 37 38 39 40 41 42 43 44 45 46 47 48 49 50
453
ASUS45 KBOU 291307
RWRCO

WEATHER ROUNDUP FOR COLORADO
NATIONAL WEATHER SERVICE DENVER/BOULDER CO
700 AM MDT SUN MAY 29 2016

NOTE: "FAIR" INDICATES FEW OR NO CLOUDS BELOW 12000 FEET WITH NO
SIGNIFICANT WEATHER AND/OR OBSTRUCTIONS TO VISIBILITY.

COZ001>005-013-030-031-291400-
...NORTHWEST COLORADO...

CITY           SKY/WX    TMP DP  RH WIND       PRES   REMARKS
CRAIG          FAIR      40  37  89 CALM      30.22S
HAYDEN         FAIR      43  34  70 E9        30.23S
MEEKER         FAIR      41  34  76 CALM      30.23R
MOUNT WERNER   NOT AVBL
STEAMBOAT SPGS FAIR      37  33  89 CALM      30.26R
WALDEN         NOT AVBL
$$

COZ006>008-011-291400-
...WEST CENTRAL VALLEYS...

CITY           SKY/WX    TMP DP  RH WIND       PRES   REMARKS
GRAND JUNCTION FAIR      54  36  50 SE8       30.15R
MONTROSE       FAIR      48  34  58 SE5       30.22R
EAGLE          SUNNY     36  34  93 CALM      30.32S
RIFLE          FAIR      43  35  73 CALM      30.22R
DELTA          FAIR      53  34  47 NE7       30.20R
NUCLA          PTSUNNY   48  32  53 E6        30.22R
$$

COZ017>023-064>068-291400-
...SOUTHWEST COLORADO...

CITY           SKY/WX    TMP DP  RH WIND       PRES   REMARKS
DURANGO        FAIR      44  32  62 CALM      30.21R
CORTEZ         FAIR      43  32  65 CALM      30.17R
PAGOSA SPRINGS FAIR      44  31  60 CALM      30.29R
TELLURIDE      FAIR      43  28  54 SE5       30.36R
WOLF CREEK PAS CLOUDY    34  25  69 NE7       30.53S WCI  28
$$

COZ009-010-012-014-032>034-037-058>063-291400-
...CENTRAL COLORADO...

CITY           SKY/WX    TMP DP  RH WIND       PRES   REMARKS
ASPEN          FAIR      37  30  75 CALM      30.30R
BUENA VISTA    FAIR      41  28  60 NW6       30.35R
COPPER MTN     NOT AVBL
BERTHOUD PASS  FAIR      32  21  64 W6        30.49S WCI  26
COTTONWOOD PAS FAIR      45  27  49 CALM      30.40R
GUNNISON       FAIR      36  28  75 CALM      30.36R
KREMMLING      FAIR      34  32  93 CALM      30.34R
LEADVILLE      FAIR      31  24  75 N3        30.39R
MONARCH PASS   FAIR      34  23  64 W15       30.59R WCI  24
SALIDA         FAIR      42  32  66 CALM      30.41R
SUNLIGHT       FAIR      41  28  60 CALM      30.45R
WILKERSON PASS FAIR      37  27  65 CALM      30.49R
$$

COZ069>075-291400-
...SAN LUIS VALLEY/SANGRE DE CRISTO MOUNTAINS...

CITY           SKY/WX    TMP DP  RH WIND       PRES   REMARKS
ALAMOSA        FAIR      45  36  70 N6        30.30R
LA VETA PASS   FAIR      45  27  49 CALM      30.42S
SAGUACHE       NOT AVBL
$$

COZ035-036-038>040-291400-
...NORTHERN COLORADO FRONT RANGE...

CITY           SKY/WX    TMP DP  RH WIND       PRES   REMARKS
DENVER INTL AP FAIR      52  40  63 SW9       30.17R
DMNS CITY PARK   N/A     54  37  53 SE7       30.18R
AURORA         MOSUNNY   52  39  62 CALM      30.19R
FRONT RANGE AP MOSUNNY   50  41  71 S9G18     30.18
ERIE MUNI ARPT FAIR      48  42  81 CALM      30.16S
BOULDER MUN AP FAIR      54  36  50 CALM      30.17R
CENTENNIAL     FAIR      51  38  60 SE9       30.20R
BROOMFIELD     MOSUNNY   52  39  62 W3        30.18S
FORT COLLINS   FAIR      48  43  81 CALM      30.17S
LONGMONT       FAIR      53  43  68 CALM      30.18S
$$

COZ041-046-047-076>085-087-088-291400-
...PIKES PEAK/PALMER DIVIDE AND SOUTHERN FOOTHILLS...

CITY           SKY/WX    TMP DP  RH WIND       PRES   REMARKS
COLO. SPRINGS  PTSUNNY   51  42  71 N5        30.24F
A. F. ACADEMY  FAIR      43  39  87 N7        30.24S
SCHRIEVER AFB  NOT AVBL
ELLICOTT       FAIR     N/A N/A N/A N5        30.22S
FALCON         FAIR      50  41  70 NW3       30.27F
FORT CARSON    FAIR      48  40  72 NW8       30.22R
LIMON          FAIR      50  45  83 CALM      30.20R
MONUMENT HILL  FAIR      46  39  76 S9        30.27S
TRINIDAD       FAIR      51  37  58 W10       30.22R
$$

COZ042>045-048>051-090-091-291400-
...NORTHEAST COLORADO...

CITY           SKY/WX    TMP DP  RH WIND       PRES   REMARKS
GREELEY ARPT   FAIR      46  45  93 CALM      30.16S
AKRON          FAIR      54  47  77 CALM      30.16S
BURLINGTON     FAIR      57  48  72 S13       30.15R
WRAY           NOT AVBL
STERLING       FAIR      50  46  87 SW6       30.13R
HOLYOKE        NOT AVBL
FORT MORGAN    FAIR      50  46  85 SW3       30.16R
$$

COZ086-089-092>099-291400-
...SOUTHEAST COLORADO...

CITY           SKY/WX    TMP DP  RH WIND       PRES   REMARKS
PUEBLO         FAIR      53  45  74 W10       30.18R
LA JUNTA       FAIR      55  49  80 W8        30.15R
LAMAR          FAIR      56  49  77 CALM      30.13R
SPRINGFIELD      N/A     59  49  69 S9        30.17R
$$




USA.gov is the U.S. government's official web portal to all federal, state and local government web resources and services.